Weather Service Report


503 
ASUS42 KTBW 012217
RWRFL 
FLORIDA REGIONAL WEATHER ROUNDUP
NATIONAL WEATHER SERVICE TAMPA BAY RUSKIN FL
600 PM EDT TUE SEP 01 2015

NOTE: "FAIR" INDICATES FEW OR NO CLOUDS BELOW 12,000 FEET WITH NO
SIGNIFICANT WEATHER AND/OR OBSTRUCTIONS TO VISIBILITY.


FLZ001>010-012>015-112-114-115-012300-
PANHANDLE FLORIDA
  
CITY           SKY/WX    TMP DP  RH WIND       PRES   REMARKS
PENSACOLA      MOSUNNY   89  68  49 S10       30.01S                  
PENSACOLA NAS  PTSUNNY   88  71  57 SW10      30.02R                  
MILTON NAS     MOSUNNY   91  67  44 SE5       30.01S                  
CRESTVIEW      SUNNY     95  66  38 NE5       30.02F HX  98           
DUKE FIELD     MOSUNNY   94  65  37 E7        30.01R HX  97           
VALPARAISO     PTSUNNY   92  71  50 S9        30.01R HX  98           
MARY ESTHER    SUNNY     89  71  55 VRB7      30.00S HX  95           
TRI COUNTY     FAIR      94  68  42 NE5       30.02F HX  98           
PANAMA CITY    MOCLDY    89  72  56 S9        30.00S HX  96           
TYNDALL AFB    PTSUNNY   90  71  53 E6        30.01S HX  96           
APALACHICOLA   RAIN      77  75  93 SE8       30.03S FOG              

STATION/POSITION SKY/WX   TEMP    WIND        PRES    WAVE   SWELL
                          AIR SEA DIR/SP/G            HT/PER HT/PER
                          (F)     (DEG/KT/KT) (MB)    (FT/S) (FT/S)
30.1N   87.6W              86 87  200/  6/  6 1016.4F   1/ 5
29.2N   88.2W              84 87   70/  6/  8 1017.5F   2/ 5   2/ 5
28.8N   86.0W              82 86   90/ 10/ 12 1016.6F   3/ 4   2/ 6
PANAMA CITY BEAC           87 85  220/  7/  8 1016.3F
CAPE SAN BLAS    NOT AVBL
TOWER C                    79      10/  8/  9 1016.5F
28.5N   84.5W              82 86   CALM  /  2 1016.1F   3/ 6   2/ 6

$$
FLZ011-016>038-118-127-128-134-139-239-012300-
NORTH FLORIDA
  
CITY           SKY/WX    TMP DP  RH WIND       PRES   REMARKS
MARIANNA       MOSUNNY   92  67  43 E8        30.01F HX  95           
TALLAHASSEE    LGT RAIN  83  74  74 E9        30.03F                  
PERRY          CLOUDY    83  76  78 CALM      30.04S                  
CROSS CITY       N/A     82  75  79 SE5       30.03S                  
LAKE CITY      FAIR      81  77  89 CALM      30.05S                  
GAINESVILLE    CLOUDY    83  76  79 S5        30.05S                  
MAYPORT NAS    PTSUNNY   85  78  80 SE8       30.03F HX  96           
JACKSONVILLE   CLOUDY    84  78  82 NE6       30.03F HX  95           
JAX NAS        CLOUDY    92  72  51 SW7       30.03F HX  99           
JAX CRAIG      CLOUDY    86  78  77 SE8       30.03S HX  98           
JAX CECIL      SUNNY     86  77  74 CALM      30.04S HX  97           
FERNANDINA BEA FAIR      86  79  79 E5        30.03S HX  99           
ST AUGUSTINE   CLOUDY    84  78  82 E8        30.04F HX  95           

STATION/POSITION SKY/WX   TEMP    WIND        PRES    WAVE   SWELL
                          AIR SEA DIR/SP/G            HT/PER HT/PER
                          (F)     (DEG/KT/KT) (MB)    (FT/S) (FT/S)
SHELL POINT                77     360/  5/  7   N/A
KEATON BEACH               81     150/  4/  5 1017.2R
CEDAR KEY                  81     180/  9/ 10 1017.2F
FERNANDINA                 84 85   90/  2/  6 1016.9F
30.7N   81.3W                 86                N/A     2/ 8
MAYPORT                    84 86  130/  8/ 10 1017.5F
31.4N   80.9W              81 84   70/  8/  8 1018.1F   2/ 8   2/ 8
ST AUGUSTINE               83 87  160/ 10/ 11 1017.9F

$$
FLZ040-043>046-052-053-057-058-063-144-012300-
INTERIOR CENTRAL FLORIDA
  
CITY           SKY/WX    TMP DP  RH WIND       PRES   REMARKS
OCALA          MOSUNNY   82  73  74 SW8       30.05S                  
THE VILLAGES     N/A     84  75  74 SW6       29.96S                  
LEESBURG       CLOUDY    82  76  81 CALM      30.06S                  
SANFORD        PTSUNNY   88  73  61 W10       30.04R HX  95           
ORLANDO EXEC   PTSUNNY   87  75  67 W9        30.05R HX  96           
ORLANDO INTL   PTSUNNY   87  73  62 W10       30.04R                  
KISSIMMEE      PTSUNNY   88  75  66 NW9       30.05R HX  97           
WINTER HAVEN   CLOUDY    80  74  81 W6        30.06S                  
LAKELAND       MOSUNNY  N/A N/A N/A CALM      30.05F                  
BARTOW         FAIR      81  75  83 CALM      30.06                   
OKEECHOBEE     SUNNY     91  68  46 E3        30.04R HX  95           

$$
FLZ041-047-054-059-064-141-147-012300-
EAST CENTRAL FLORIDA
  
CITY           SKY/WX    TMP DP  RH WIND       PRES   REMARKS
ORMOND BEACH   MOSUNNY   86  77  74 SE5       30.04S HX  97           
DAYTONA BEACH  PTSUNNY   86  77  74 E5        30.04S HX  97           
DELAND           N/A     86  75  70 W6        30.06R HX  95           
NEW SMYRNA BEA MOSUNNY   84  73  70 E12       30.05F                  
TITUSVILLE       N/A     86  75  70 SE6       30.05R HX  95           
CAPE CANAVERAL PTSUNNY   89  77  68 SE6       30.03S HX 101           
PATRICK AFB    MOSUNNY   86  77  75 SE12      30.03F HX  97           
MELBOURNE      MOSUNNY   87  76  69 E13       30.03F HX  97           
VERO BEACH     MOSUNNY   89  76  65 E10       30.05R HX 100           
FT PIERCE      MOSUNNY   88  76  67 E12       30.04R HX  99           
STUART         SUNNY     86  75  70 E10       30.05R HX  95           

STATION/POSITION SKY/WX   TEMP    WIND        PRES    WAVE   SWELL
                          AIR SEA DIR/SP/G            HT/PER HT/PER
                          (F)     (DEG/KT/KT) (MB)    (FT/S) (FT/S)
28.5N   80.2W              85 87  110/  6/  8 1018.1F
28.9N   78.5W              86 87  240/  2/  4 1018.5F
TRIDENT PIER               87 87  100/  5/  9 1018.1F
28.4N   80.5W                 86                N/A     2/10
27.5N   80.2W                 86                N/A     2/10

$$
FLZ050-056-061-142-242-148-248-149-249-151-251-155-255-
160-260-012300-
WEST CENTRAL FLORIDA
  
CITY           SKY/WX    TMP DP  RH WIND       PRES   REMARKS
CRYSTAL RIVER  FAIR      82  73  74 CALM      30.04S                  
INVERNESS      FAIR      82  77  83 CALM      30.05F                  
BROOKSVILLE      N/A     84  76  76 MISG      30.05F                  
CLEARWATER     PTSUNNY   84  74  71 S6        30.03F                  
TAMPA INTL     CLOUDY    85  75  72 W6        30.04S                  
TAMPA EXEC     CLOUDY    88  75  66 CALM      30.04F HX  97           
PLANT CITY     CLOUDY    86  79  79 CALM      30.06F HX  99           
MACDILL AFB    PTSUNNY   86  79  78 W6        30.04S HX  99           
PETER O KNIGHT PTSUNNY   86  79  79 W3        30.04S HX  99           
ST PETERSBURG  PTSUNNY   85  73  67 W6        30.02S                  
SARASOTA       PTSUNNY   84  76  76 W6        30.02S                  
VENICE         FAIR      86  77  74 S6        30.04S HX  97           

STATION/POSITION SKY/WX   TEMP    WIND        PRES    WAVE   SWELL
                          AIR SEA DIR/SP/G            HT/PER HT/PER
                          (F)     (DEG/KT/KT) (MB)    (FT/S) (FT/S)
CEDAR KEY                  81     180/  9/ 10 1017.2F
28.5N   84.5W              82 86   CALM  /  2 1016.1F   3/ 6   2/ 6
27.3N   84.2W                 86                N/A     2/ 5
CLEARWATER BEACH           82 85  210/ 10/ 12 1017.3F
MIDDLE TAMPA BAY                  280/  9/ 10 1017.4F
VENICE                     87 88  230/  6/  7 1016.6R

$$
FLZ066-069-070-075>078-162-262-165-265-012300-
SOUTHWEST FLORIDA AND KEYS
  
CITY           SKY/WX    TMP DP  RH WIND       PRES   REMARKS
PUNTA GORDA    MOSUNNY   88  75  65 SW7       30.04S HX  97           
FT MYERS       MOSUNNY   89  74  60 W7        30.02S HX  98           
SOUTHWEST INTL MOSUNNY   90  74  59 SW7       30.02S HX  99           
NAPLES         MOSUNNY   89  77  67 W8        30.03R HX 101           
MARCO ISLAND   CLOUDY    90  75  62 W6        30.03R HX 100           
MARATHON       SUNNY     89  78  70 VRB5      30.02S HX 103           
KEY WEST NAS   MOSUNNY   89  76  65 E6        30.01S HX 100           
KEY WEST INTL  SUNNY     88  77  69 SE8       30.01F HX 100           

STATION/POSITION SKY/WX   TEMP    WIND        PRES    WAVE   SWELL
                          AIR SEA DIR/SP/G            HT/PER HT/PER
                          (F)     (DEG/KT/KT) (MB)    (FT/S) (FT/S)
VENICE                     87 88  230/  6/  7 1016.6R
NAPLES                        88              1017.8F
26.0N   85.6W              82 87  320/ 17/ 21 1016.2F   2/ 5
DRY TORTUGAS                                    N/A
NW FL BAY                  87     160/  5/  6 1016.4
SAND KEY                   86      90/  5     1016.3S
LONG KEY                   86 88   90/  5/  6 1017.6R
MOLASSES REEF              86 87  110/  5/  6 1017.2R

$$
FLZ067-068-071>074-168-172>174-012300-
SOUTHEAST FLORIDA 
  
CITY           SKY/WX    TMP DP  RH WIND       PRES   REMARKS
W PALM BEACH   MOSUNNY   87  73  62 SE10      30.05R                  
FT LAUDER-EXEC MOSUNNY   89  75  63 SE9       30.04R HX  99           
FT LAUDERDALE  MOSUNNY   85  76  74 SE10G17   30.04R                  
POMPANO BEACH  SUNNY     88  75  65 E9        30.04R HX  97           
PEMBROKE PINES SUNNY     89  73  59 E8        30.05R HX  97           
OPA LOCKA      MOSUNNY   88  74  63 S5        30.05R HX  96           
MIAMI          PTSUNNY   85  76  74 W10       30.05R                  
WEST KENDALL   PTSUNNY   82  72  71 NW9       30.05R                  
HOMESTEAD      MOSUNNY   88  76  66 E5        30.04R HX  98           

STATION/POSITION SKY/WX   TEMP    WIND        PRES    WAVE   SWELL
                          AIR SEA DIR/SP/G            HT/PER HT/PER
                          (F)     (DEG/KT/KT) (MB)    (FT/S) (FT/S)
PORT EVERGLADES            87     130/  5/  7 1017.4R
VIRGINIA KEY               86 87  110/  7/ 11 1016.7F
LAKE WORTH                 85 88  130/  8/  9 1016.9F
SETTLEMENT POINT           85      50/  7/  9 1018.4S

$$


Return to Home page


Western Regional Climate Center, wrcc@dri.edu